Location: Buckeye Ditch
(40.9104°N, 122.9517°W)
Time: 18:02:43
(UTC+00:00)

BlueWalker 3 - Pass Details

Date: 25 June 2024
Orbit: 480 x 491 km, 53.2° (Epoch: 23 July)

Event Time Altitude Azimuth Distance (km) Brightness Sun altitude
Rises 09:36:17 0° 308° (NW) 2,538 5.7 -23.0°
Reaches altitude 10° 09:38:27 10° 308° (NW) 1,656 4.7 -22.8°
Enters shadow 09:40:44 35° 305° (NW) 788 3.0 -22.7°
